Regional Weather Roundup
Issued by NWS

Home | Current Version | Previous Version | Text Only | Print | Product List | Glossary On
Versions: 1 2 3 4 5 6 7 8 9 10 11 12 13 14 15 16 17 18 19 20 21 22 23 24 25 26 27 28 29 30 31 32 33 34 35 36 37 38 39 40 41 42 43 44 45 46 47 48 49 50
000
ASUS45 KABQ 201210
RWRNM
NEW MEXICO REGIONAL WEATHER ROUNDUP
NATIONAL WEATHER SERVICE ALBUQUERQUE NM
600 AM MDT SUN AUG 20 2017

NOTE: "FAIR" MEANS FEW OR NO CLOUDS BELOW 12,000 FEET AGL WITH NO
       SIGNIFICANT WEATHER OR OBSTRUCTIONS TO VISION.

      THIS PRODUCT IS RELEASED AS TWO VERSIONS.  ONE VERSION NEAR
      THE TOP OF THE HOUR CONTAINING PRELIMINARY DATA FROM ALBUQUERQUE
      AND OTHER STATIONS.  A FINAL VERSION WITH ADDITIONAL DATA IS
      ISSUED ABOUT 10 MINUTES AFTER THE HOUR.

NMZ501-503-504-510>518-201300-
NORTHWEST PLATEAU/NORTHCENTRAL MOUNTAINS

CITY           SKY/WX    TMP DP  RH WIND       PRES   REMARKS
FARMINGTON     FAIR      67  43  41 E10       30.10S
6HR MIN TEMP:  64; 6HR MAX TEMP:  72;

LOS ALAMOS     FAIR      62  44  50 CALM      30.26F
SANTA FE       FAIR      59  48  67 N6        30.20S
6HR MIN TEMP:  59; 6HR MAX TEMP:  68;

TAOS           FAIR      53  42  66 CALM      30.29S
ANGEL FIRE     FAIR      45  41  88 CALM      30.36S

$$
NMZ402-403-502-505>509-201300-
WESTCENTRAL MOUNTAINS/SOUTHWEST MOUNTAINS

CITY           SKY/WX    TMP DP  RH WIND       PRES   REMARKS
GALLUP         FAIR      66  43  43 SW6       30.20S
6HR MIN TEMP:  66; 6HR MAX TEMP:  73;

GRANTS         FAIR      68  39  34 CALM      30.21S
SILVER CITY    RAIN      61  57  85 N10       30.17S

$$
NMZ407-409-411-412-201300-
SOUTHERN DESERTS

CITY           SKY/WX    TMP DP  RH WIND       PRES   REMARKS
DEMING         RAIN      63  60  90 S7        30.13R
6HR MIN TEMP:  62; 6HR MAX TEMP:  72; 6HR PCP:  0.07;

LAS CRUCES     RAIN      63  61  94 NW8       30.12S
HOLLOMAN AFB   FAIR      68  59  73 W5        30.11R
ALAMOGORDO     FAIR      68  57  68 NW6       30.10S
T OR C         CLOUDY    70  55  59 SE16      30.09F
6HR MIN TEMP:  70; 6HR MAX TEMP:  75;


$$
NMZ519>523-201300-
CENTRAL VALLEYS/CENTRAL HIGHLANDS

CITY           SKY/WX    TMP DP  RH WIND       PRES   REMARKS
ALBUQUERQUE    CLOUDY    71  48  43 E5        30.13F
6HR MIN TEMP:  70; 6HR MAX TEMP:  75;

DOUBLE EAGLE   MOCLDY    63  48  59 CALM      30.17
MORIARTY ARPT  FAIR      59  55  84 CALM      30.21S
6HR MIN TEMP:  58; 6HR MAX TEMP:  62;

CLINES CORNERS FAIR      58  47  66 W7        30.25S
6HR MIN TEMP:  58; 6HR MAX TEMP:  62;

BELEN          FAIR      71  50  48 S3        30.12S
6HR MIN TEMP:  68; 6HR MAX TEMP:  73;

SOCORRO        FAIR      67  53  59 S6        30.13R
6HR MIN TEMP:  67; 6HR MAX TEMP:  75;


$$
NMZ524>526-539-540-201300-
SOUTHCENTRAL MOUNTAINS

CITY           SKY/WX    TMP DP  RH WIND       PRES   REMARKS
RUIDOSO        FAIR      59  50  72 SW6       30.27R

$$
NMZ527>531-201300-
NORTHEAST HIGHLANDS/NORTHEAST PLAINS

CITY           SKY/WX    TMP DP  RH WIND       PRES   REMARKS
LAS VEGAS      FAIR      57  47  69 S8        30.21F
6HR MIN TEMP:  56; 6HR MAX TEMP:  62;

RATON          FAIR      52  49  89 E3        30.16S
6HR MIN TEMP:  52; 6HR MAX TEMP:  61;

CLAYTON        FAIR      61  53  75 SW10      30.09R
6HR MIN TEMP:  57; 6HR MAX TEMP:  66;


$$
NMZ532>537-201300-
EASTCENTRAL PLAINS

CITY           SKY/WX    TMP DP  RH WIND       PRES   REMARKS
SANTA ROSA     FAIR      60  52  74 CALM      30.10F
TUCUMCARI      FAIR      68  59  73 SW8       30.05S
6HR MIN TEMP:  65; 6HR MAX TEMP:  74;

CANNON AFB     MOCLDY    66  66 100 S3        30.11S
6HR MIN TEMP:  65; 6HR MAX TEMP:  71;

CLOVIS AIRPORT FAIR      64  62  93 S7        30.10F

$$
NMZ028-029-538-201300-
SOUTHEAST PLAINS

CITY           SKY/WX    TMP DP  RH WIND       PRES   REMARKS
ROSWELL        MOCLDY    74  62  66 CALM      30.05R
6HR MIN TEMP:  73; 6HR MAX TEMP:  78;

ARTESIA        FAIR      70  70 100 S6        30.05R
CARLSBAD       FAIR      69  69 100 S5        30.02S
6HR MIN TEMP:  69; 6HR MAX TEMP:  73;

HOBBS          PTCLDY    68  64  88 E9        30.08S


$$



USA.gov is the U.S. government's official web portal to all federal, state and local government web resources and services.